sat.trackr.live / text

‹ back to catalog

STARLINK-37583

NORAD 69466 · 2026-127Z

PAYLOAD ACTIVE UNKNOWN

§ Identity

Operator
Country
US
Launch date
2026-06-08
Launch site
AFETR
Launch vehicle
Mass (kg)
RCS (m²)

Purposes: comms

External: N2YO · Heavens-Above · Gunter

§ Orbital elements

Epoch: 2026-09-19T04:35:00.662496Z

Period
93.85 min
Inclination
53.1586°
Eccentricity
0.0004147
Mean motion
15.34376727 rev/d
Perigee alt
459.9 km
Apogee alt
465.6 km
Semi-major
6,840.9 km
B*
4.7093e-4
RAAN
171.6354°
Arg perigee
74.1878°
Mean anomaly
285.9582°
Rev number
1,599

§ Raw data

STARLINK-375831 69466U 26127Z   26262.19097989  .00015558  00000+0  47093-3 0  99982 69466  53.1586 171.6354 0004147  74.1878 285.9582 15.34376727 15997

JSON: /api/v1/satellites/69466 · /tle

For live sub-satellite position, see the globe view (requires WebGL).

§ Visibility from observer

Set your observer location to see the next 7 days of passes ≥ 10°. The values pass through the URL so the page stays shareable.

No JS? Fill the form by hand. The geolocation button needs JavaScript.